OBJECT BA, 62657

Orbit data source: Space-Track

You're viewing an Uncataloged Satellite

Recently launched and/or uncataloged satellites may have evolving metadata. Metadata may include but not limited to: Owner, Maufacturer, Bus, Motor, and Mission.

OBJECT BA, 62657 is a satellite in SSO that was launched on Tue, 14 Jan 2025 UTC launched from the Air Force Western Test Range (AFWTR). Unknown objects in Earth's orbit typically refer to objects detected orbiting the Earth but have not yet been identified or cataloged. These objects could be anything from previously untracked satellites, spent rocket stages, debris from satellite collisions, or even natural meteoroids temporarily captured by Earth's gravity.

Loading next visibility...
Identifier
62657, 2025-009BA
Orbit
SSO
Country
Flag of TBDTBD
Related business
None
Manufacturer
Unknown
Mission
Operational Civil Technology
Bus & Motor
Unknown
Mass
Unknown
Launch date (UTC)
2025-01-14 (1 year ago)
Launch vehicle
Unknown
Launch site
Air Force Western Test Range (AFWTR)
Object type
Unknown
Shape & HBR
Box, 0.1 m
Radar Cross Section
0.015 m², Small (<0.1 m²)

Expand to show TLE details & history
Last TLE update: 1 day ago

TLE from 1 day ago
0 OBJECT BA
1 62657U 25009BA  26124.17669640  .00009967  00000-0  36422-3 0  9997
2 62657  97.3949 206.1847 0003175  87.9654 272.1949 15.28288896 72204
Epoch: 2026-05-04T04:14Z
TLE epoch observation values (Epoch: 2026-05-04T04:14:26.568Z)
Latitude
-0.00008°
Longitude
-79.49564°
Altitude
483.946 km
Speed
7.623 km/s
True Right ascension
13h 44m 44s
True Declination
0° 00' 00"
Sunlit
Object was in full shadow at epoch
Visualization orbit readout
Latitude
Unknown
Longitude
Unknown
Altitude
Unknown
Speed
Unknown
Apparent Right ascension
Unknown
Apparent Declination
Unknown
Sunlit
N/A
Visualization observer readout
Local Sidereal Time
16:46:59
Azimuth
Unknown
Elevation
Unknown
Doppler factor
Unknown
Orbital elements
Apogee altitude
480.058 km
Perigee altitude
475.705 km
Semi-major axis
6,856.019 km
Eccentricity
0.00032
Inclination
97.3949°
RAAN
206.1847°
Arg. of periapsis
87.9654°
True anomaly
272.15854°
Mean anomaly
272.1949°
Eccentric anomaly
272.17672°
Mean motion
3.82327 °/min
Orbital period
94.16 mins
BSTAR
0.00036422
Loading maneuver chart data...
Computing Atmospheric mass density...
Loading historical data...
Loading historical data...
Loading historical data...
Loading historical data...
Loading historical data...
Loading historical data...
Loading historical data...

Documentation

Showing up to 5 results
|